Weather Roundup
Issued by NWS

Home | Current Version | Previous Version | Graphics & Text | Print | Product List | Glossary Off
Versions: 1 2 3 4 5 6 7 8 9 10 11 12 13 14 15 16 17 18 19 20 21 22 23 24 25 26 27 28 29 30 31 32 33 34 35 36 37 38 39 40 41 42 43 44 45 46 47 48 49 50

000
NZUS93 KARX 040159
HRRWXR

CURRENT HOURLY OBSERVATIONS ACROSS
MUCH OF THE UPPER MISSISSIPPI VALLEY
NATIONAL WEATHER SERVICE LA CROSSE WI
800 PM CST TUE MAR 03 2015


...SOUTHEAST MINNESOTA...


CITY           SKY/WX    TMP DP  RH WIND       PRES   REMARKS
ROCHESTER      MOCLDY    12   7  80 NW21      29.89R WCI  -7
ROCHESTER/MAYO CLOUDY    14   8  75 W21G26    29.89R WCI  -4
WINONA         CLEAR     21  12  68 W17       29.89R WCI   7
AUSTIN         CLOUDY    12   7  79 NW22G31   29.93R WCI  -7
ALBERT LEA     MOCLDY    12   7  79 NW18G25   29.95R WCI  -5
DODGE CENTER   CLOUDY    12   9  85 NW18G25   29.90R FOG     WCI  -5
PRESTON        CLEAR     13   8  80 NW22      29.89R WCI  -6
OWATONNA       CLOUDY    12   7  79 W21G26    29.95R HAZE    WCI  -6
FARIBAULT      CLOUDY    12   7  79 W16G23    29.95R WCI  -4
$$

...ELSEWHERE IN MINNESOTA...


CITY           SKY/WX    TMP DP  RH WIND       PRES   REMARKS
MINNEAPOLIS    PTCLDY    13   3  64 W22G32    29.93R WCI  -6
INTNL FALLS    CLEAR      2 -10  57 W12       29.78R WCI -15
DULUTH         CLOUDY    10  -1  61 NW15G23   29.75R WCI  -7
RED WING       CLOUDY    18   7  62 W15G22    29.90R WCI   3
REDWOOD FALLS  CLEAR     10   1  67 NW16      30.02R WCI  -7
MANKATO        FAIR      10   1  67 NW24G31   29.97R WCI -10
FAIRMONT       CLEAR     12   1  62 W17G25    29.98R WCI  -5
$$

...SOUTHWEST WISCONSIN...


CITY           SKY/WX    TMP DP  RH WIND       PRES   REMARKS
LA CROSSE      PTCLDY    24  13  62 W17       29.85R WCI  11
PRAIRIE DU CHI CLOUDY    28  19  69 W16       29.84R WCI  16
BOSCOBEL       CLOUDY    31  21  66 W9        29.83R WCI  23
LONE ROCK      NOT AVBL
PLATTEVILLE    CLOUDY    29  24  81 W15G21    29.81R WCI  18
FORT MC COY    CLOUDY    29  18  64 W15G21    29.79R WCI  18
CAMP DOUGLAS   CLOUDY    28  23  80 NW15G22   29.77R WCI  17
VIROQUA        CLOUDY    27  21  77 W14       29.79R WCI  15
WIS DELLS      NOT AVBL
$$

...ELSEWHERE IN WISCONSIN...


CITY           SKY/WX    TMP DP  RH WIND       PRES   REMARKS
MILWAUKEE      CLOUDY    31  21  66 W9        29.77R WCI  23
MADISON        CLOUDY    30  22  72 W6        29.78R WCI  24
GREEN BAY      CLOUDY    29  20  69 W12       29.69R WCI  19
EAU CLAIRE     CLEAR     20   7  57 W21G26    29.81R WCI   4
BLACK RVR FLS  FAIR      27  13  56 NW7G21    29.79R WCI  19
MEDFORD        CLEAR     22  13  67 W13       29.68R WCI  10
WAUSAU         CLOUDY    25  17  72 W14       29.67R WCI  13
WIS RAPIDS     CLOUDY    28  17  63 W10       29.75R WCI  19
MARSHFIELD     PTCLDY    24  13  62 NW16G28   29.73R WCI  11
RICE LAKE      CLEAR     19   5  55 W14G23    29.79R WCI   5
$$

...NORTHEAST IOWA...


CITY           SKY/WX    TMP DP  RH WIND       PRES   REMARKS
DECORAH        CLOUDY    19  12  73 NW13G28   29.86R WCI   7
MASON CITY     PTCLDY    13   5  70 NW23G29   29.98R WCI  -6
CHARLES CITY   PTCLDY    16  10  79 NW21      29.93R WCI  -2
OELWEIN        MOCLDY    19  14  79 NW20G26   29.90R WCI   4
$$

...ELSEWHERE IN IOWA...


CITY           SKY/WX    TMP DP  RH WIND       PRES   REMARKS
DES MOINES     CLOUDY    26  16  65 N14       30.00R WCI  14
IOWA CITY      CLOUDY    27  20  75 NW17G25   29.92R WCI  14
FORT DODGE     PTCLDY    16   7  67 NW9G16    30.03R WCI   4
$$

...NORTHERN ILLINOIS...


CITY           SKY/WX    TMP DP  RH WIND       PRES   REMARKS
CHICAGO-OHARE  CLOUDY    33  26  75 W10       29.79R WCI  25
CHICAGO-MIDWAY CLOUDY    35  28  75 W8        29.80R WCI  29
MOLINE         CLOUDY    33  25  72 W12       29.88R WCI  24
ROCKFORD       CLOUDY    31  22  69 W13       29.82R WCI  21
PEORIA         CLOUDY    36  27  69 NW8G21    29.89R WCI  30
$$

NOTE: "FAIR" INDICATES FEW OR NO CLOUDS BELOW 12,000 FEET WITH NO
SIGNIFICANT WEATHER AND/OR OBSTRUCTIONS TO VISIBILITY. WIND
SPEEDS ARE IN MILES-PER-HOUR.



USA.gov is the U.S. government's official web portal to all federal, state and local government web resources and services.